Date,TemperatureHighF,TemperatureAvgF,TemperatureLowF,DewpointHighF,DewpointAvgF,DewpointLowF,HumidityHigh,HumidityAvg,HumidityLow,PressureMaxIn,PressureMinIn,WindSpeedMaxMPH,WindSpeedAvgMPH,GustSpeedMaxMPH,PrecipitationSumIn
2013-1-1,69.3,60.5,49.8,67.5,56.5,43.5,95,87,76,30.14,29.81,26,9,26,0.09
2013-1-2,49.8,42.4,38.8,43.5,39.7,36.1,98,91,76,30.27,30.12,18,6,18,0.17
2013-1-3,49.8,45.6,40.6,41.2,36.7,31.8,98,72,50,30.35,30.23,18,6,19,0.04
2013-1-4,50.4,48.1,45.9,40.1,38.6,37.6,75,70,62,30.39,30.29,18,6,19,0.00
2013-1-5,49.6,46.8,43.2,47.1,43.6,39.2,98,89,74,30.31,30.19,18,6,21,0.05
2013-1-6,63.9,51.5,41.5,48.0,44.2,39.9,95,78,44,30.32,30.19,15,4,16,0.00
2013-1-7,63.5,51.6,39.0,54.9,47.3,36.3,96,86,70,30.26,29.95,15,5,17,0.00
2013-1-8,68.4,62.2,55.2,67.6,61.5,54.3,100,97,93,29.95,29.71,26,7,28,0.14
2013-1-9,67.5,62.0,55.8,67.5,60.8,54.7,100,96,85,30.00,29.77,21,4,22,0.30
2013-1-10,71.8,57.9,49.8,54.7,50.7,47.7,97,79,48,30.05,29.96,15,4,15,0.01
2013-1-11,78.3,64.3,49.1,70.7,61.5,48.2,99,91,74,30.00,29.76,24,7,24,0.00
2013-1-12,83.8,73.8,70.2,72.9,70.6,69.1,97,90,66,29.79,29.58,29,11,29,0.00
2013-1-13,71.2,54.5,45.9,70.3,45.3,37.2,98,73,48,30.06,29.65,27,9,29,0.03
2013-1-14,49.6,45.9,42.8,42.8,38.8,34.9,95,76,64,30.15,30.02,18,-7,19,0.00
2013-1-15,44.2,42.7,40.6,43.7,40.9,36.3,99,94,78,30.19,29.99,18,7,20,0.06
2013-1-16,57.9,47.7,35.8,36.5,26.0,16.7,79,46,20,30.34,30.16,26,-5,26,0.00
2013-1-17,67.6,53.3,38.7,41.5,34.8,23.5,79,51,32,30.42,30.26,19,-7,19,0.00
2013-1-18,65.3,53.0,40.6,48.7,43.1,34.9,92,71,48,30.46,30.27,14,4,15,0.00
2013-1-19,74.3,59.4,45.9,54.9,49.8,44.4,96,73,42,30.27,30.09,16,3,16,0.00
2013-1-20,75.4,60.5,48.4,57.7,53.0,47.5,98,79,46,30.20,30.04,17,3,17,0.00
2013-1-21,73.2,61.3,52.9,59.7,52.5,45.1,96,76,39,30.18,30.06,17,4,18,0.00
2013-1-22,73.0,61.5,48.7,58.8,54.5,47.3,97,80,48,30.25,30.12,19,4,19,0.00
2013-1-23,79.0,65.6,54.0,65.7,60.2,52.5,98,84,61,30.28,30.15,19,4,19,0.00
2013-1-24,83.1,67.1,55.9,67.1,61.7,55.4,100,85,49,30.25,30.06,20,5,20,0.00
2013-1-25,82.4,68.0,55.8,70.5,63.1,55.4,100,86,59,30.12,29.98,23,7,25,0.01
2013-1-26,79.9,68.5,61.7,65.8,62.4,59.7,98,83,52,30.09,29.97,25,9,27,0.01
2013-1-27,77.4,70.4,61.5,70.3,67.2,59.7,99,90,76,30.04,29.91,29,12,31,0.00
2013-1-28,79.0,72.9,69.6,71.2,69.8,68.5,99,90,76,30.02,29.84,31,14,32,0.01
2013-1-29,90.0,76.3,68.5,70.7,66.8,43.5,96,75,40,29.86,29.52,35,14,36,0.00
2013-1-30,68.5,60.8,49.3,44.1,22.9,9.7,44,24,11,30.20,29.71,33,-2,35,0.01
2013-1-31,72.0,58.3,40.3,47.3,31.3,18.5,71,39,16,30.29,30.14,21,-8,21,0.00